Location: Cisewo
(53.3833°N, 14.9000°E)
Time: 21:45:12
(UTC+00:00)

Daily predictions for brighter satellites

Satellite Brightness Start Highest point End
(mag) Time Altitude Azimuth Time Altitude Azimuth Time Altitude Azimuth
Cosmos 2344 4.1 18:29:27 10° S 18:35:56 33° ESE 18:42:43 10° NE
Cosmos 2228 3.1 18:35:49 10° S 18:40:10 89° WNW 18:44:30 10° N
Cosmos 1408 2.5 18:36:48 10° N 18:40:24 77° ENE 18:43:57 10° SSE
MetOp-A 4.5 18:36:58 10° S 18:42:19 72° WSW 18:47:42 10° NNW
Cosmos 482 Debris 4.0 18:40:39 10° SW 18:42:59 27° SSE 18:44:47 10° E
RESURS DK-1 3.4 18:42:55 10° SSE 18:46:20 25° ESE 18:49:46 10° NE
Cosmos 1300 4.1 18:43:59 10° SSW 18:47:38 44° WNW 18:51:19 10° N
SL-16 R/B 3.6 18:45:34 10° NNW 18:50:20 26° NE 18:55:06 10° E
Cosmos 2058 3.0 18:47:16 10° N 18:51:27 61° ENE 18:55:35 10° SSE
Cosmos 1980 4.1 18:46:38 10° NNW 18:52:11 50° NE 18:57:43 10° SE
CZ-2C R/B 3.5 18:47:50 10° N 18:52:55 56° WNW 18:58:00 10° SW
Cosmos 1992 Rocket 4.2 18:49:42 10° NNW 18:54:56 78° WSW 19:00:09 10° SSE
DMSP B5D2-2 4.3 18:50:22 10° NNE 18:55:38 80° WNW 19:00:53 10° SSW
Cosmos 2360 Rocket 3.9 18:52:04 10° NW 18:57:02 32° WSW 19:01:58 10° SSW
ATLAS 3B R/B 2.9 18:51:13 10° NW 18:58:11 79° SW 19:05:27 10° SE
Cosmos 1689 Rocket 4.4 18:57:13 10° N 18:59:44 28° WNW 19:02:14 10° SW
Cosmos 2058 Rocket 3.0 18:55:30 10° S 18:59:48 64° E 19:04:08 10° NNE
COSMOS 2428 2.9 18:55:10 10° NW 19:00:55 75° WSW 19:06:39 10° SSE
Cosmos 1953 Rocket 4.3 18:56:41 10° NNW 19:00:59 55° W 19:05:12 10° S
COSMOS 2487 2.3 19:00:22 10° SSW 19:03:45 71° ESE 19:07:09 10° NNE
SME Rocket 3.6 19:00:13 10° NNE 19:03:56 62° WNW 19:08:17 10° SSW
Cosmos 1092 Rocket 4.2 18:58:03 10° NNW 19:04:22 79° W 19:10:34 10° S
USA 186 3.6 19:01:41 10° SSW 19:04:34 30° W 19:07:22 10° NNW
USA 215 3.3 18:58:30 10° ESE 19:05:04 84° SSW 19:11:40 10° WNW
Cosmos 2151 4.0 19:01:26 10° N 19:05:16 30° ENE 19:08:42 12° SE
Cosmos 1076 Rocket 3.8 19:04:44 10° N 19:09:01 52° ENE 19:13:15 10° SSE
Cosmos 1833 4.4 19:05:16 10° SW 19:10:54 78° WNW 19:16:37 10° NNE
NOSS 0 Rocket 4.0 19:06:43 10° NW 19:12:58 87° NE 19:19:06 11° SSE
ERS-2 3.6 19:09:45 10° N 19:13:13 41° WNW 19:16:39 10° SW
Cosmos 1818 4.1 19:08:50 10° S 19:13:48 37° ESE 19:18:48 10° NE
Cosmos 2219 Rocket 2.9 19:08:43 10° NW 19:14:15 54° WSW 19:19:46 10° S
FALCON 9 DEB 4.5 19:11:50 10° SSW 19:14:28 21° SE 19:16:30 13° E
Cosmos 1812 Rocket 4.4 19:11:08 10° SSE 19:15:01 31° E 19:18:57 10° NNE
Cosmos 909 Rocket 4.4 19:09:47 10° S 19:15:38 42° ESE 19:21:40 10° NE
Resurs 01 Rocket 1.6 19:13:15 10° SSE 19:17:42 77° ENE 19:22:11 10° NNW
Cosmos 44 3.8 19:13:20 10° SSW 19:18:12 43° ESE 19:23:18 10° NE
ERS-1 Rocket 4.1 19:14:41 12° ESE 19:18:27 29° ENE 19:22:44 10° N
Cosmos 1455 2.2 19:17:22 10° SSW 19:21:06 84° W 19:24:52 10° N
ATLAS 5 CENTAUR R/B 3.2 19:20:58 10° W 19:25:00 38° NNW 19:29:39 10° NE
Cosmos 1633 3.0 19:24:15 10° N 19:27:44 43° ENE 19:30:05 18° SE
Cosmos 1356 3.4 19:25:43 10° NNW 19:29:10 87° WSW 19:32:12 13° S
Resurs 1-3 4.3 19:24:57 10° S 19:29:16 54° W 19:33:36 10° NNW
CARTOSAT-1 4.4 19:27:16 16° SE 19:30:11 36° ENE 19:34:09 10° N
Cosmos 1809 Rocket 4.4 19:24:57 10° N 19:31:05 72° ENE 19:36:59 11° SSE
IGS 5A 3.4 19:27:42 11° SSE 19:31:43 86° ENE 19:35:54 10° NNW
Lacrosse 5 rocket 2.0 19:28:27 10° W 19:32:33 57° N 19:36:53 10° ENE
Cosmos 405 Rocket 2.9 19:29:27 10° NNW 19:33:30 78° W 19:37:21 11° S
BREEZE-M DEB (TANK) 4.4 19:23:36 10° W 19:38:55 65° S 19:42:11 18° ESE
Cosmos 2237 Rocket 2.2 19:35:32 10° NNW 19:41:13 90° SSW 19:45:36 17° SSE
Cosmos 1140 Rocket 4.3 19:38:38 15° SSE 19:42:02 30° ESE 19:46:28 10° NE
IRIDIUM 106 4.3 19:36:54 10° S 19:42:05 71° E 19:47:18 10° N
SPOT 5 3.5 19:40:17 19° ESE 19:43:05 39° ENE 19:47:31 10° N
Cosmos 2279 Rocket 3.9 19:37:25 10° S 19:43:35 75° E 19:49:48 10° NNE
BREEZE-M DEB (TANK) 4.2 19:40:31 10° WSW 19:44:43 40° S 19:48:44 16° ESE
Spot 2 Rocket 3.6 19:41:31 18° SE 19:45:19 63° ENE 19:50:21 10° N
CZ-2C R/B 3.7 19:42:09 10° NNE 19:46:33 54° E 19:50:38 11° S
BREEZE-M DEB (TANK) 4.4 19:43:16 10° WSW 19:46:56 57° SSE 19:57:44 10° E
Meteor 2-14 Rocket 4.4 19:45:12 10° N 19:51:19 83° E 19:56:27 15° SSE
OBJECT-B 3.7 19:49:51 10° SW 19:51:43 14° W 19:53:36 10° NW
Terra 2.7 19:50:06 20° ESE 19:52:41 36° ENE 19:57:02 10° N
BREEZE-M DEB (TANK) 4.4 19:51:33 10° WSW 19:56:37 82° SSE 20:20:14 10° E
MetOp-B 4.3 19:52:09 13° S 19:57:00 73° WSW 20:02:24 10° NNW
NOSS 3-4 (A) 4.1 19:51:41 10° WSW 19:57:36 60° NNW 20:04:08 10° NE
NOSS 3-4 (C) 4.1 19:51:48 10° WSW 19:57:43 60° NNW 20:04:14 10° NE
Cosmos 2227 Rocket 2.9 19:57:04 19° SSE 20:00:17 33° ESE 20:05:19 10° NE
SPOT 1/Viking Rocket 3.6 19:58:13 17° SSE 20:02:20 82° WSW 20:07:37 10° NNW
Cosmos 389 Rocket 2.5 20:00:14 10° SSW 20:03:43 80° WNW 20:07:18 10° NNE
Cosmos 2333 Rocket 4.3 19:59:43 10° NW 20:04:03 22° WSW 20:08:22 10° SSW
Cosmos 2251 Rocket 3.7 19:58:43 10° SSW 20:04:06 79° WNW 20:09:29 10° NNE
Cosmos 2266 Rocket 4.0 19:58:36 10° N 20:05:04 81° E 20:09:47 19° SSE
Cosmos 2297 Rocket 2.5 20:02:14 10° S 20:07:35 46° ESE 20:12:58 10° NE
BREEZE-M DEB (TANK) 3.3 20:06:44 10° WSW 20:08:17 21° SSW 20:08:17 21° SSW
SPOT 3 Rocket 4.4 20:04:02 10° S 20:09:00 46° W 20:14:01 10° NNW
Cosmos 2219 3.5 20:05:52 15° S 20:10:14 44° ESE 20:15:33 10° NE
Cosmos 1190 Rocket 4.3 20:07:40 21° SSE 20:10:50 44° ESE 20:15:47 10° NE
ATLAS 2AS CENTAUR R/B 3.3 20:03:29 10° WSW 20:11:25 73° NW 20:19:05 10° NE
Meteor 2-21 Rocket 4.4 20:05:50 10° NNW 20:11:56 90° W 20:16:19 20° S
ARIANE 5 R/B 2.6 20:09:19 24° SSE 20:11:57 85° WSW 20:16:22 10° NNW
Timation 2 Rocket 4.3 20:10:14 11° S 20:16:10 45° ESE 20:22:07 10° NE
H-2A R/B 4.3 20:13:00 10° NNE 20:16:45 30° E 20:17:14 29° ESE
Cosmos 1763 Rocket 4.0 20:15:44 10° NNW 20:20:39 46° NE 20:22:57 28° ESE
Orbus 7S? 3.7 20:18:15 10° WSW 20:21:36 86° SSE 20:28:56 10° ENE
CZ-4C R/B 3.7 20:18:33 10° W 20:23:49 40° NNW 20:30:12 10° NE
Genesis I 3.4 20:20:06 10° NW 20:24:04 63° SW 20:25:22 38° SSE
RESURS DK-1 3.3 20:20:07 10° SW 20:24:08 49° NW 20:28:12 10° NNE
Meteor 2-16 Rocket 4.5 20:19:12 10° NNW 20:25:23 86° W 20:29:25 23° S
Cosmos 1862 4.2 20:22:03 10° N 20:25:41 32° ENE 20:26:25 30° E
USA 245 4.0 20:24:37 22° SSW 20:26:48 44° WSW 20:29:58 10° NNW
Cosmos 1408 Rocket 4.1 20:23:43 10° N 20:27:52 43° ENE 20:29:01 35° ESE
Cosmos-2242 2.9 20:25:49 26° S 20:28:16 84° E 20:32:36 10° NNE
Cosmos 676 Rocket 4.5 20:26:56 32° SE 20:28:18 38° ESE 20:33:05 10° NE
JB-3 4.4 20:25:38 10° NNE 20:29:46 65° ESE 20:31:09 38° S
Cosmos 1655 Rocket 4.4 20:26:39 10° NNW 20:32:51 61° W 20:37:45 16° S
SL-16 R/B 2.2 20:29:30 10° NNW 20:35:15 88° NE 20:37:53 34° SSE
NOSS 3-1 (C) 4.1 20:28:56 10° NW 20:35:58 71° NE 20:41:19 24° ESE
Cosmos 540 Rocket 4.3 20:35:22 10° NNW 20:40:13 40° NE 20:42:15 28° E
Cosmos 2151 4.3 20:38:39 10° NNW 20:42:37 36° W 20:45:16 18° SSW
Cosmos 1743 Rocket 4.4 20:39:19 10° N 20:43:21 35° ENE 20:44:08 33° E
Meteor 2-3 Rocket 4.3 20:39:07 10° NNW 20:44:44 54° W 20:48:26 21° SSW
ATLAS 3B R/B 4.4 20:42:43 10° WNW 20:48:03 24° WSW 20:53:12 11° SSW
USA 215 4.1 20:45:38 25° S 20:48:39 37° SW 20:54:38 10° WNW
Cosmos 2344 3.8 20:42:08 10° WSW 20:49:32 75° NW 20:58:04 10° NE
FALCON 9 DEB 4.1 20:47:34 10° WSW 20:49:44 35° SW 20:49:44 35° SW
Meteor 1-27 4.2 20:47:48 24° S 20:51:24 88° ESE 20:57:17 10° NNE
Cosmos 2221 3.1 20:53:18 39° E 20:53:23 39° E 20:57:22 10° NNE
CZ-4B DEB 4.4 20:54:11 65° WSW 20:54:17 65° WSW 20:57:31 10° NNW
Resurs 01 Rocket 4.2 20:51:57 10° SW 20:54:45 16° W 20:57:35 10° NW
Cosmos 1553 Rocket 4.4 20:54:34 35° SE 20:56:17 42° E 21:01:58 10° NNE
Cosmos 44 Rocket 4.4 20:57:58 29° E 20:57:58 29° E 21:01:33 10° ENE
ERS-1 Rocket 3.4 20:54:39 29° SSW 20:57:00 54° W 21:01:58 10° NNW
Cosmos 1818 4.2 20:51:49 10° WSW 20:57:13 59° NW 21:02:40 10° NE
Okean 3 Rocket 4.0 20:53:14 10° NNW 20:57:43 59° W 20:59:21 36° SSW
Cosmos 407 Rocket 3.7 20:53:57 10° SW 20:59:04 68° WNW 21:04:17 10° NNE
Cosmos 44 4.3 20:54:20 10° WSW 20:59:27 52° NW 21:04:48 10° NE
Cosmos 1766 Rocket 4.1 20:57:51 10° NNW 21:02:05 52° W 21:03:29 36° SSW
Cosmos 1500 Rocket 3.8 20:58:37 10° N 21:03:02 54° ENE 21:03:43 48° ESE
Cosmos 1943 3.8 20:59:25 10° NNW 21:04:53 48° NE 21:07:11 31° ESE
Meteor 1-4 Rocket 2.5 21:10:11 74° W 21:10:14 74° WNW 21:13:47 10° N
ATLAS 5 CENTAUR R/B 3.9 21:06:51 10° WNW 21:10:49 26° N 21:15:21 10° ENE
Lacrosse 5 rocket 2.0 21:07:56 10° WNW 21:12:09 57° N 21:14:12 29° ENE
Meteor 2-15 4.3 21:09:37 36° S 21:12:14 82° E 21:18:20 10° NNE
ALOS 2 4.0 21:12:33 25° E 21:13:21 27° ENE 21:17:02 10° N
Cosmos 1954 Rocket 3.8 21:12:17 38° SSW 21:14:20 84° ESE 21:19:32 10° NNE
Cosmos 1869 3.9 21:18:40 39° SW 21:19:44 53° WNW 21:23:38 10° N
Meteor 2-2 Rocket 4.2 21:18:00 45° SSE 21:19:45 70° E 21:25:26 10° NNE
COSMOS 2455 2.8 21:18:15 43° S 21:20:00 59° ESE 21:25:55 10° NE
SPOT 5 4.0 21:19:30 25° SW 21:21:15 34° W 21:25:35 10° NNW
Cosmos 1140 Rocket 4.2 21:18:36 10° SW 21:23:36 52° WNW 21:28:38 10° NNE
Cosmos 2237 Rocket 4.2 21:20:40 10° WNW 21:24:32 19° W 21:27:26 13° SW
SeaSat 1 2.9 21:20:14 10° NE 21:24:38 42° ESE 21:24:38 42° ESE
Terra 2.8 21:28:59 31° SW 21:30:26 39° W 21:34:55 10° NNW
Cosmos 1606 3.6 21:34:03 38° NE 21:34:03 38° NE 21:36:48 10° NNE
Timation 1 Rocket 4.2 21:33:37 37° SSW 21:36:10 83° ESE 21:42:10 10° NE
Cosmos 2082 3.6 21:39:13 42° SSW 21:41:14 88° ESE 21:46:55 10° NNE
Cosmos 2263 Rocket 2.9 21:42:46 36° E 21:42:46 36° E 21:47:31 10° NE
USA 229 DEB 3.8 21:35:54 10° NW 21:43:08 86° SW 21:46:08 41° SE
USA 229 3.8 21:36:00 10° NW 21:43:14 86° SW 21:46:15 41° SE
SL-24 DEB 4.5 21:43:10 53° E 21:43:25 54° E 21:47:58 10° N
Cosmos 2227 Rocket 2.8 21:38:46 11° SW 21:44:08 57° NW 21:49:44 10° NNE
Cosmos 1603 3.6 21:43:38 10° NNW 21:49:25 89° ENE 21:50:37 58° SSE
USA 281 4.1 21:46:12 22° ESE 21:49:58 42° NE 21:56:04 10° NNW
Cosmos 1842 Rocket 3.8 21:49:34 56° WSW 21:50:11 63° WNW 21:54:38 10° N
Cosmos 841 Rocket 3.4 21:45:33 10° NNW 21:50:48 76° WSW 21:51:30 65° S
Cosmos 2297 Rocket 3.3 21:46:19 10° WSW 21:51:43 44° NW 21:57:08 10° NNE
Cosmos 2219 4.2 21:49:04 10° WSW 21:54:27 45° NW 21:59:51 10° NNE
Cosmos 1745 Rocket 4.0 21:48:25 10° NNW 21:54:48 80° W 21:56:33 50° S
Cosmos 1814 Rocket 3.9 21:53:18 10° NNW 21:58:41 89° WSW 21:59:24 68° SSE
Cosmos 1709 Rocket 4.0 21:54:19 10° N 22:00:36 73° ENE 22:02:05 53° SE
NOSS 3-1 (A) 3.9 21:53:42 10° NW 22:00:57 79° SW 22:04:04 43° SSE
Cosmos 921 Rocket 3.1 21:57:28 10° NNW 22:01:48 72° W 22:01:48 72° W
Cosmos 1763 Rocket 4.4 21:57:48 10° NW 22:02:20 33° WSW 22:02:58 32° WSW
ATLAS 2AS CENTAUR R/B 4.2 21:56:11 10° W 22:03:33 41° NNW 22:10:35 10° ENE
Meteor 1-25 Rocket 4.2 22:01:02 10° NNW 22:06:47 80° ENE 22:07:50 61° SSE
Cosmos 1437 Rocket 3.8 22:08:30 38° NE 22:08:30 38° NE 22:11:08 10° NNE
S3M 4.0 22:08:54 51° SSW 22:10:42 88° W 22:17:09 10° N
Cosmos 2084 Rocket 3.8 22:10:44 56° WNW 22:11:03 59° NW 22:15:09 10° NE
Cosmos 1805 Rocket 3.7 22:06:59 10° NNW 22:11:11 62° W 22:11:11 62° W
Spot 4 3.9 22:11:46 61° SW 22:12:05 63° WSW 22:16:57 10° NNW
CZ-4C R/B 4.1 22:08:13 10° WNW 22:13:53 36° N 22:20:38 10° ENE
Cosmos 883 Rocket 4.5 22:14:35 56° SSE 22:15:49 71° E 22:22:06 10° NNE
SL-16 R/B 3.9 22:14:39 10° NW 22:18:39 20° W 22:19:46 19° WSW
COBE Rocket 4.0 22:19:45 58° E 22:20:04 60° ENE 22:24:53 10° N
Sich 1 3.3 22:16:59 10° NNW 22:20:54 61° WNW 22:20:54 61° WNW
Cosmos 540 Rocket 4.1 22:17:04 10° NW 22:21:52 40° WSW 22:22:04 40° WSW
Cosmos 1174 4.2 22:18:31 10° NW 22:22:44 66° NW 22:22:44 66° NW
Cosmos 1470 Rocket 4.2 22:19:25 10° N 22:23:35 46° ENE 22:23:35 46° ENE
NOSS 3-1 (C) 4.5 22:19:52 10° NW 22:26:52 46° WSW 22:28:42 40° SSW
Meteor 1-20 Rocket 4.2 22:22:37 10° NNW 22:28:27 71° W 22:29:20 60° SSW
Meteor 1-26 Rocket 4.5 22:28:00 53° SE 22:28:44 57° E 22:34:27 10° NNE
Cosmos 1570 Rocket 4.3 22:23:57 10° NNW 22:29:07 53° WSW 22:29:20 52° WSW
Cosmos 2221 4.1 22:30:07 25° W 22:31:03 27° WNW 22:34:46 10° N
NOSS 2-2 (C) 4.4 22:30:03 10° NW 22:34:52 67° NE 22:37:24 36° ESE
Cosmos 1633 Rocket 3.1 22:30:39 10° NNW 22:34:39 74° NNW 22:34:39 74° NNW
Cosmos 2227 4.1 22:34:45 68° S 22:35:23 76° ESE 22:41:10 10° NE
Nimbus 7 Rocket 4.4 22:30:26 10° NNE 22:36:15 60° ESE 22:36:58 56° SE
NOSS 2-2 (E) 4.3 22:32:08 10° NW 22:37:08 77° NE 22:39:19 43° ESE
Cosmos 44 Rocket 3.7 22:36:37 41° WSW 22:38:16 65° NW 22:43:30 10° NE
Aureole 1 Rocket 3.7 22:38:07 50° WSW 22:39:22 65° WNW 22:43:56 10° NNE
Cosmos 1933 Rocket 4.3 22:36:01 10° N 22:40:11 45° ENE 22:40:11 45° ENE
Cosmos 1666 Rocket 3.8 22:37:33 10° NNW 22:41:42 63° WNW 22:41:42 63° WNW
Cosmos 1943 3.8 22:43:40 10° NW 22:48:53 40° WSW 22:48:59 40° WSW
ALOS 2 3.3 22:49:56 45° W 22:49:56 45° W 22:53:45 10° NNW
Cosmos 1242 Rocket 3.8 22:52:39 40° NNE 22:52:39 40° NNE 22:55:09 10° NNE
Lacrosse 5 rocket 2.6 22:47:07 10° WNW 22:49:47 36° WNW 22:49:47 36° WNW
Cosmos 1782 3.4 22:54:23 57° NNE 22:54:23 57° NNE 22:57:40 10° NNE
Cosmos 1666 3.8 22:51:46 10° N 22:54:48 41° NE 22:54:48 41° NE
Cosmos 1933 4.0 22:57:04 51° NW 22:57:04 51° NW 23:00:39 10° N
ATLAS 5 CENTAUR R/B 3.3 22:51:54 10° NW 22:56:38 39° NNE 23:02:12 10° E
Cosmos 1328 Rocket 3.7 22:57:28 70° NE 22:57:28 70° NE 23:01:32 10° NNE
Thor Agena Rocket 3.4 22:53:17 10° NNE 22:58:25 73° ESE 22:58:37 72° SE
Cosmos 2154 Rocket 4.4 22:52:59 10° N 22:59:15 57° ENE 23:01:08 42° SE
SeaSat 1 3.4 22:57:49 10° NNE 23:02:29 43° NW 23:04:24 30° W
COSMOS 2455 3.9 23:01:18 14° WSW 23:06:12 43° NW 23:11:57 10° NE
Cosmos 1812 3.7 23:10:11 43° NE 23:10:11 43° NE 23:13:03 10° NNE
Cosmos 2184 Rocket 3.9 23:04:49 10° N 23:11:14 89° E 23:12:34 59° S
NOSS 2-1 (C) 4.4 23:12:00 37° NNW 23:12:00 37° NNW 23:15:28 10° NE
Cosmos 2315 Rocket 4.2 23:10:31 48° SW 23:12:08 62° WNW 23:18:28 10° N
Iridium 4 Rocket 3.6 23:11:57 57° W 23:12:16 58° W 23:17:30 10° N
USA 290 4.1 23:12:52 10° NNW 23:14:55 30° N 23:14:55 30° N
NOSS 2-1 (D) 4.5 23:18:21 34° NNW 23:18:27 35° NNW 23:22:01 10° NE
Meteor 2-12 Rocket 4.4 23:14:24 10° N 23:20:35 78° ENE 23:21:57 56° SSE
Meteor 1-14 Rocket 4.5 23:14:50 10° NNW 23:20:44 60° W 23:21:32 55° SW
Cosmos 1151 Rocket 3.5 23:21:43 52° WNW 23:21:43 52° WNW 23:25:43 10° N
Cosmos 1500 4.4 23:17:56 10° NNW 23:20:36 37° NW 23:20:36 37° NW
Cosmos 773 Rocket 4.4 23:18:34 10° NNW 23:23:49 60° ENE 23:25:10 46° ESE
Cosmos 968 Rocket 3.3 23:24:12 77° SSE 23:24:32 82° ESE 23:29:51 10° NNE
Cosmos 2263 Rocket 2.8 23:24:25 37° W 23:26:14 51° NW 23:31:42 10° NNE
Cosmos 1743 4.3 23:27:49 10° N 23:31:09 28° ENE 23:31:20 28° ENE
USA 281 3.2 23:33:03 52° SSW 23:34:17 61° WSW 23:40:50 10° NNW
NOSS 2-2 (D) 4.3 23:30:15 10° NW 23:35:20 66° SW 23:36:02 61° S
SL-4 R/B 3.3 23:41:44 36° ESE 23:41:44 36° ESE 23:44:40 10° E
Cosmos 1844 Rocket 2.7 23:39:31 60° SE 23:40:02 63° ESE 23:45:34 10° NE
Cosmos 1295 Rocket 4.4 23:34:29 10° N 23:40:46 87° E 23:42:21 54° SSE
Cosmos 1486 Rocket 3.9 23:40:25 72° SSW 23:40:59 89° WNW 23:46:22 10° NNE
Cosmos 2074 Rocket 4.2 23:36:07 10° NNW 23:42:14 57° W 23:43:22 50° SW
Cosmos 1869 Rocket 3.5 23:40:02 10° N 23:44:17 79° NE 23:44:17 79° NE
Helios 1A 3.0 23:45:17 77° N 23:45:17 77° N 23:49:16 10° NNW
EO 1 Delta rocket 4.1 23:45:11 54° ESE 23:45:53 61° ENE 23:50:27 10° N
Meteor 1-5 Rocket 4.5 23:41:12 10° NNW 23:46:48 52° W 23:47:20 50° WSW
Cosmos 1544 4.1 23:43:34 10° N 23:46:31 42° NE 23:46:31 42° NE
Meteor 2-6 Rocket 4.0 23:48:13 66° SW 23:48:57 80° WNW 23:54:24 10° NNE
Cosmos 2082 Rocket 3.7 23:44:03 10° NNW 23:49:10 34° NE 23:54:15 10° ESE
Cosmos 1515 Rocket 3.8 23:49:36 59° WNW 23:49:36 59° WNW 23:53:58 10° N
Cosmos 1271 Rocket 3.3 23:53:58 55° ENE 23:53:58 55° ENE 23:57:21 10° NNE
USA 307 4.0 23:55:49 34° E 23:55:49 34° E 23:58:29 10° ENE
SJ 16-02 3.3 23:56:01 18° ESE 23:56:35 18° E 23:59:35 10° NE
